Regional Weather Roundup
Issued by NWS

Home | Current Version | Previous Version | Graphics & Text | Print | Product List | Glossary On
Versions: 1 2 3 4 5 6 7 8 9 10 11 12 13 14 15 16 17 18 19 20 21 22 23 24 25 26 27 28 29 30 31 32 33 34 35 36 37 38 39 40 41 42 43 44 45 46 47 48 49 50
000
ASUS44 KMEG 221500
RWRTN
TENNESSEE HOURLY STATE WEATHER ROUNDUP
NATIONAL WEATHER SERVICE MEMPHIS TN
1000 AM CDT FRI AUG 22 2014

TNZ002-004-019-021-049-052-054-088>092-221600-
WEST TENNESSEE

CITY           SKY/WX    TMP DP  RH WIND       PRES   REMARKS
MEMPHIS INTL   MOSUNNY   87  73  62 VRB7      30.10S HX  94
NWS MEMPHIS      N/A     85 N/A N/A MISG        N/A
JACKSON        SUNNY     84  74  71 W9        30.09S HX  91
DYERSBURG      SUNNY     86  70  58 SW6       30.08S HX  90
PARIS          SUNNY     84  73  70 SW9       30.09R HX  91
SAVANNAH       SUNNY     84  75  74 SW5       30.11F HX  92
$$

TNZ008-025-027-028-033-062-065-066-221600-
NORTH MIDDLE TENNESSEE

CITY           SKY/WX    TMP DP  RH WIND       PRES   REMARKS
NASHVILLE      PTSUNNY   88  74  63 SW7       30.10F HX  96
CLARKSVILLE    MOSUNNY   84  75  74 W9        30.09R HX  92
COOKEVILLE     SUNNY     88  75  66 W8        30.13S HX  97
CROSSVILLE     PTSUNNY   82  71  69 W13G20    30.18F
$$

TNZ061-075-076-078-094-096-097-221600-
SOUTH MIDDLE TENNESSEE

CITY           SKY/WX    TMP DP  RH WIND       PRES   REMARKS
SHELBYVILLE    SUNNY     88  77  70 W7        30.14S HX 100
$$

TNZ017-018-042-046-047-221600-
NORTHEAST TENNESSEE

CITY           SKY/WX    TMP DP  RH WIND       PRES   REMARKS
TRI CITIES     CLOUDY    77  71  82 CALM      30.15R
ELIZABETHTON   CLOUDY    73  70  88 NW3       30.15S
$$

TNZ012-013-036-069-073-074-221600-
CENTRAL EAST TENNESSEE

CITY           SKY/WX    TMP DP  RH WIND       PRES   REMARKS
KNOXVILLE      PTSUNNY   82  73  74 SW6       30.13R
OAK RIDGE      MOSUNNY   83  73  72 W6        30.13S
GATLINBURG     PTSUNNY   86  72  62 SW5       30.12S HX  92
$$

TNZ083-085-099-221600-
SOUTHEAST TENNESSEE

CITY           SKY/WX    TMP DP  RH WIND       PRES   REMARKS
CHATTANOOGA    PTSUNNY   87  72  60 W7        30.13F HX  93
$$

SKY/WX REPORTED AS FAIR MEANS FEW OR NO CLOUDS BELOW
12 THOUSAND FEET.



USA.gov is the U.S. government's official web portal to all federal, state and local government web resources and services.